Location: Pinon Hills
(34.4429°N, 117.6403°W)
Time: 12:02:24
(UTC-07:00)

Amateur Radio Satellites - All Passes

Search period start: 24 April 2017 11:32
Search period end: 25 April 2017 11:32
Location: Pinon Hills, 34.4429°N, 117.6403°W

Satellite Date Start Highest point End Downlink Frequencies (MHz)
Time Altitude Azimuth
DUCHIFAT 1 24 Apr 11:35:33 11:39:28 39° 73° (ENE) 11:43:22 145.980
OBJECT BX 24 Apr 11:37:04 11:39:21 16° 290° (WNW) 11:41:38 145.990 - 145.960
FO-29 24 Apr 11:42:46 11:47:45 22° 264° (W) 11:52:21 435.910
PCSat 24 Apr 11:47:46 11:52:32 30° 56° (ENE) 11:57:17 145.827
O/OREOS (USA 219) 24 Apr 11:49:10 11:52:54 24° 297° (WNW) 11:56:40 437.305
ESTCUBE 1 24 Apr 11:57:56 12:02:19 46° 99° (E) 12:06:41 437.505/2401.250
RS-15 24 Apr 12:08:28 12:14:25 14° 347° (NNW) 12:20:22 29.354- 29.394
POLYITAN 1 24 Apr 12:08:30 12:12:41 63° 259° (W) 12:16:53 437.675
SPROUT 24 Apr 12:10:30 12:12:45 14° 93° (E) 12:14:58 437.525
Oscar 19 24 Apr 12:12:15 12:14:12 12° 63° (ENE) 12:16:10 437.125/150
QB50P2 24 Apr 12:15:05 12:19:10 47° 260° (W) 12:23:16 145.880/145.840
AIST 2D 24 Apr 12:16:25 12:18:59 19° 264° (W) 12:21:33 435.315
VELOX 1 24 Apr 12:23:13 12:26:41 22° 96° (E) 12:30:07 145.980
NANOSAT C BR1 24 Apr 12:40:10 12:43:49 28° 263° (W) 12:47:29 145.865
BUGSAT 1 24 Apr 12:47:37 12:51:48 89° 81° (E) 12:55:57 437.445
LO-87 24 Apr 12:49:42 12:51:47 15° 290° (WNW) 12:53:52 145.935 - 145.965
AO-85 24 Apr 12:53:26 12:57:45 55° 116° (ESE) 13:01:49 145.980
UKube-1 24 Apr 12:57:16 12:59:05 12° 93° (E) 13:00:53 .
EO-79 24 Apr 13:08:16 13:10:10 13° 267° (W) 13:12:05 145.935-145.965
DUCHIFAT 1 24 Apr 13:13:07 13:15:15 14° 267° (W) 13:17:21 145.980
BEESAT 3 24 Apr 13:21:19 13:23:35 15° 109° (ESE) 13:25:54 437.485
DX 1 24 Apr 13:23:00 13:27:05 39° 99° (E) 13:31:08 434.975-435.025
Gurwin Techsat 1B 24 Apr 13:29:13 13:34:11 42° 71° (ENE) 13:39:10 435.225
PCSat 24 Apr 13:31:07 13:35:50 31° 252° (WSW) 13:40:33 145.827
ESTCUBE 1 24 Apr 13:36:16 13:38:41 14° 294° (WNW) 13:41:05 437.505/2401.250
50 SAT 24 Apr 13:39:10 13:42:38 63° 284° (WNW) 13:46:03 437.505
SPROUT 24 Apr 13:44:50 13:48:45 38° 287° (WNW) 13:52:40 437.525
Oscar 19 24 Apr 13:47:44 13:52:51 71° 258° (WSW) 13:58:02 437.125/150
VELOX 1 24 Apr 13:59:21 14:03:03 27° 290° (WNW) 14:06:44 145.980
RS-15 24 Apr 14:26:41 14:34:31 18° 25° (NNE) 14:42:11 29.354- 29.394
UKube-1 24 Apr 14:31:11 14:35:18 45° 287° (WNW) 14:39:24 .
AO-85 24 Apr 14:36:26 14:38:23 13° 310° (NW) 14:40:17 145.980
BEESAT 2 24 Apr 14:50:05 14:53:58 64° 116° (ESE) 14:57:55 435.950
BEESAT 3 24 Apr 14:57:14 15:00:51 34° 304° (NW) 15:04:30 437.485
DX 1 24 Apr 15:00:20 15:02:54 15° 293° (WNW) 15:05:27 434.975-435.025
AO-7 24 Apr 15:01:52 15:09:53 56° 67° (ENE) 15:17:55 .
ITUPSAT 1 24 Apr 15:05:13 15:09:14 26° 97° (E) 15:13:14 437.325
ITAMSAT 1 24 Apr 15:08:08 15:13:12 56° 73° (ENE) 15:18:17 435.822/435.867
Gurwin Techsat 1B 24 Apr 15:10:25 15:14:14 20° 266° (W) 15:18:04 435.225
Tancredo 1 24 Apr 15:26:45 15:29:09 20° 34° (NNE) 15:31:32 437.200
ISS 24 Apr 15:29:53 15:32:14 18° 32° (NNE) 15:34:36 437.550
YUBILEINY 24 Apr 15:45:17 15:53:52 56° 80° (E) 16:02:28 435.215
SO-50 24 Apr 15:48:01 15:52:05 33° 55° (NE) 15:56:09 436.795
BEESAT 24 Apr 16:03:22 16:08:06 68° 285° (WNW) 16:12:50 436.000
MOZHAYETS 4 24 Apr 16:18:13 16:22:50 84° 102° (ESE) 16:27:28
BEESAT 2 24 Apr 16:31:05 16:32:08 11° 313° (NW) 16:33:11 435.950
RS-15 24 Apr 16:38:40 16:50:40 56° 54° (NE) 17:02:01 29.354- 29.394
ITUPSAT 1 24 Apr 16:42:58 16:46:56 26° 291° (WNW) 16:50:53 437.325
KKS-1 24 Apr 16:48:31 16:52:17 27° 97° (E) 16:56:02 437.445
ITAMSAT 1 24 Apr 16:50:16 16:52:57 14° 267° (W) 16:55:38 435.822/435.867
AO-7 24 Apr 16:56:06 17:02:54 28° 263° (W) 17:09:44 .
Tancredo 1 24 Apr 17:02:19 17:05:05 30° 229° (SW) 17:07:51 437.200
CUBESAT XI-V 24 Apr 17:02:53 17:07:19 40° 98° (E) 17:11:43 437.345
ISS 24 Apr 17:05:45 17:08:49 39° 228° (SW) 17:11:53 437.550
XW-2F 24 Apr 17:18:21 17:19:54 12° 68° (ENE) 17:21:25 145.980 - 146.000
STARS 24 Apr 17:26:52 17:30:44 30° 98° (E) 17:34:33 437.465
DOVE 4 24 Apr 17:28:23 17:33:17 40° 72° (ENE) 17:38:10 437.250
SO-50 24 Apr 17:28:55 17:32:19 21° 249° (WSW) 17:35:42 436.795
JUGNU 24 Apr 17:29:29 17:31:47 12° 166° (SSE) 17:34:05 437.505
NUDT-PHONESAT 24 Apr 17:36:08 17:38:30 17° 70° (ENE) 17:40:53 437.300
CUTE-I 24 Apr 17:38:45 17:43:20 30° 69° (ENE) 17:47:56 437.470
YUBILEINY 24 Apr 17:43:09 17:50:02 27° 276° (W) 17:56:56 435.215
XW-2D 24 Apr 18:04:03 18:07:41 54° 76° (ENE) 18:11:22 145.860 - 145.880
XW-2B 24 Apr 18:10:51 18:14:33 66° 77° (ENE) 18:18:16 145.730 - 145.750
LilacSat-2 24 Apr 18:19:04 18:22:48 87° 261° (W) 18:26:34 437.200
XW-2C 24 Apr 18:22:37 18:26:21 82° 259° (WSW) 18:30:06 145.795 - 145.815
KKS-1 24 Apr 18:25:14 18:28:39 22° 291° (WNW) 18:32:04 437.445
KAITUO 1B 24 Apr 18:26:02 18:29:43 84° 75° (ENE) 18:33:25 145.475/437.950
HO-68 24 Apr 18:32:58 18:39:00 31° 65° (ENE) 18:45:03 435.675
CUBESAT XI-V 24 Apr 18:41:14 18:44:19 18° 293° (WNW) 18:47:25 437.345
SEEDS 24 Apr 18:41:40 18:42:23 10° 66° (ENE) 18:43:07 437.485
XW-2F 24 Apr 18:50:16 18:53:40 34° 262° (W) 18:57:05 145.980 - 146.000
RS-15 24 Apr 18:51:54 19:02:35 39° 254° (WSW) 19:12:51 29.354- 29.394
CUBEBUG 2 24 Apr 18:57:46 18:59:34 12° 67° (ENE) 19:01:22 437.445
STARS 24 Apr 19:03:43 19:06:49 19° 292° (WNW) 19:09:55 437.465
DOVE 4 24 Apr 19:06:59 19:10:59 22° 266° (W) 19:15:00 437.250
NUDT-PHONESAT 24 Apr 19:09:12 19:12:12 24° 264° (W) 19:15:13 437.300
JUGNU 24 Apr 19:16:04 19:20:04 19° 175° (S) 19:24:05 437.505
CUTE-I 24 Apr 19:18:41 19:23:16 29° 263° (W) 19:27:52 437.470
M-CUBED/EXP-1 PRIME 24 Apr 19:19:06 19:20:52 13° 96° (E) 19:22:36 437.505
NO-84 24 Apr 19:39:25 19:43:05 48° 129° (SE) 19:46:28 435.350 FM
CUTE 1.7 + AOD 2 24 Apr 19:49:03 19:53:13 68° 259° (W) 19:57:26 437.475
ZACube-1 24 Apr 19:49:18 19:51:46 15° 69° (ENE) 19:54:13 437.345
AAUSAT CUBESAT 2 24 Apr 19:53:01 19:56:45 35° 73° (ENE) 20:00:32 437.432
XW-2A 24 Apr 19:53:59 19:57:11 42° 260° (W) 20:00:24 145.665 - 145.685
AO-73 24 Apr 19:57:14 19:59:58 17° 69° (ENE) 20:02:40 145.935
STRAND 1 24 Apr 19:57:31 20:02:30 53° 100° (E) 20:07:28 437.568
SEEDS 24 Apr 20:13:28 20:17:33 54° 260° (W) 20:21:40 437.485
Oscar 11 24 Apr 20:14:46 20:18:10 23° 70° (ENE) 20:21:35 .
HO-68 24 Apr 20:19:41 20:26:25 45° 260° (W) 20:33:13 435.675
UWE-3 24 Apr 20:22:55 20:27:14 75° 77° (ENE) 20:31:28 435.000/436.395/437.385
O/OREOS (USA 219) 24 Apr 20:22:58 20:26:57 29° 64° (ENE) 20:30:54 437.305
CUBEBUG 2 24 Apr 20:31:28 20:35:46 49° 260° (W) 20:39:58 437.445
SRMSAT 24 Apr 20:35:13 20:38:22 15° 168° (SSE) 20:41:32 437.500
M-CUBED/EXP-1 PRIME 24 Apr 20:51:38 20:55:33 39° 292° (WNW) 20:59:11 437.505
DELFI C3 24 Apr 20:57:54 21:00:42 19° 70° (ENE) 21:03:30 145.870
JUGNU 24 Apr 21:04:28 21:08:24 18° 186° (S) 21:12:20 437.505
NO-84 24 Apr 21:18:32 21:20:45 16° 322° (NW) 21:22:53 435.350 FM
ZACube-1 24 Apr 21:23:51 21:27:44 35° 262° (W) 21:31:35 437.345
AO-85 24 Apr 21:28:39 21:31:15 16° 52° (NE) 21:33:55 145.980
AAUSAT CUBESAT 2 24 Apr 21:29:59 21:32:17 15° 267° (W) 21:34:37 437.432
AO-73 24 Apr 21:32:10 21:35:56 31° 262° (W) 21:39:40 145.935
STRAND 1 24 Apr 21:38:13 21:41:11 16° 295° (WNW) 21:44:10 437.568
UNISAT 6 24 Apr 21:45:31 21:47:04 12° 93° (E) 21:48:36 437.425
Oscar 11 24 Apr 21:50:42 21:54:09 24° 264° (W) 21:57:40 .
PRISM 24 Apr 21:50:46 21:54:06 23° 96° (E) 21:57:23 437.425
O/OREOS (USA 219) 24 Apr 22:02:40 22:06:08 22° 259° (W) 22:09:35 437.305
OBJECT BX 24 Apr 22:09:50 22:13:25 63° 259° (W) 22:17:01 145.990 - 145.960
SRMSAT 24 Apr 22:22:41 22:26:50 19° 178° (S) 22:31:00 437.500
DELFI C3 24 Apr 22:31:56 22:35:16 26° 264° (W) 22:38:37 145.870
FO-29 24 Apr 22:53:34 22:58:40 53° 101° (E) 23:04:07 435.910
ESTCUBE 1 24 Apr 22:54:09 22:57:57 28° 71° (ENE) 23:01:46 437.505/2401.250
JUGNU 24 Apr 22:54:57 22:56:41 11° 195° (SSW) 22:58:25 437.505
TIGRISAT 24 Apr 22:59:06 23:03:23 88° 114° (ESE) 23:07:43 435.000
AO-85 24 Apr 23:07:59 23:11:43 37° 246° (WSW) 23:15:38 145.980
BEESAT 2 24 Apr 23:12:18 23:14:28 14° 49° (NE) 23:16:38 435.950
BEESAT 3 24 Apr 23:16:57 23:20:44 39° 57° (ENE) 23:24:28 437.485
VELOX 1 24 Apr 23:18:10 23:20:24 14° 66° (ENE) 23:22:38 145.980
UNISAT 6 24 Apr 23:19:51 23:23:57 46° 286° (WNW) 23:28:06 437.425
LO-87 24 Apr 23:20:32 23:24:08 66° 258° (WSW) 23:27:46 145.935 - 145.965
PRISM 24 Apr 23:25:58 23:29:14 23° 290° (WNW) 23:32:29 437.425
AIST 2D 24 Apr 23:44:02 23:47:15 34° 98° (E) 23:50:29 435.315
POLYITAN 1 24 Apr 23:57:12 00:00:43 26° 97° (E) 00:04:13 437.675
QB50P2 25 Apr 00:03:27 00:07:16 33° 98° (E) 00:11:04 145.880/145.840
50 SAT 25 Apr 00:08:47 00:11:36 23° 72° (ENE) 00:14:26 437.505
SRMSAT 25 Apr 00:11:38 00:15:20 17° 189° (S) 00:19:00 437.500
DX 1 25 Apr 00:15:24 00:18:47 22° 69° (ENE) 00:22:12 434.975-435.025
NANOSAT C BR1 25 Apr 00:27:13 00:31:20 55° 100° (E) 00:35:25 145.865
ESTCUBE 1 25 Apr 00:31:10 00:34:40 22° 264° (W) 00:38:12 437.505/2401.250
SPROUT 25 Apr 00:33:50 00:38:07 84° 261° (W) 00:42:24 437.525
BUGSAT 1 25 Apr 00:34:07 00:36:33 16° 94° (E) 00:38:59 437.445
FO-29 25 Apr 00:40:25 00:43:24 15° 294° (WNW) 00:46:28 435.910
BEESAT 2 25 Apr 00:48:35 00:52:29 47° 245° (WSW) 00:56:20 435.950
VELOX 1 25 Apr 00:52:06 00:56:24 47° 261° (W) 01:00:42 145.980
EO-79 25 Apr 00:53:42 00:57:50 60° 285° (WNW) 01:01:58 145.935-145.965
BEESAT 3 25 Apr 00:55:54 00:57:56 14° 252° (WSW) 00:59:58 437.485
DUCHIFAT 1 25 Apr 00:58:07 01:02:15 66° 285° (WNW) 01:06:23 145.980
AIST 2D 25 Apr 01:19:14 01:20:06 11° 291° (WNW) 01:20:58 435.315
UKube-1 25 Apr 01:21:26 01:25:45 88° 247° (WSW) 01:30:06 .
POLYITAN 1 25 Apr 01:33:10 01:36:19 21° 290° (WNW) 01:39:27 437.675
QB50P2 25 Apr 01:40:07 01:42:45 16° 292° (WNW) 01:45:23 145.880/145.840
50 SAT 25 Apr 01:42:30 01:44:30 15° 265° (W) 01:46:31 437.505
Gurwin Techsat 1B 25 Apr 01:49:37 01:53:41 22° 95° (E) 01:57:45 435.225
DX 1 25 Apr 01:51:06 01:54:47 27° 263° (W) 01:58:31 434.975-435.025
Oscar 19 25 Apr 02:02:54 02:08:01 54° 101° (E) 02:13:05 437.125/150
NANOSAT C BR1 25 Apr 02:06:00 02:06:30 10° 295° (WNW) 02:07:02 145.865
BUGSAT 1 25 Apr 02:08:25 02:11:56 30° 288° (WNW) 02:15:27 437.445
ITUPSAT 1 25 Apr 02:08:56 02:12:29 21° 68° (ENE) 02:16:03 437.325
PCSat 25 Apr 02:25:14 02:30:29 56° 112° (ESE) 02:35:48 145.827
BEESAT 25 Apr 03:05:51 03:10:37 88° 266° (W) 03:15:23 436.000
AO-7 25 Apr 03:08:46 03:14:46 21° 95° (E) 03:20:43 .
MOZHAYETS 4 25 Apr 03:16:20 03:20:43 51° 74° (ENE) 03:25:08
ITAMSAT 1 25 Apr 03:25:05 03:29:23 26° 97° (E) 03:33:40 435.822/435.867
Gurwin Techsat 1B 25 Apr 03:28:48 03:33:41 38° 289° (WNW) 03:38:32 435.225
Oscar 19 25 Apr 03:43:45 03:46:48 16° 295° (WNW) 03:49:52 437.125/150
KKS-1 25 Apr 03:43:48 03:46:43 17° 67° (ENE) 03:49:38 437.445
ITUPSAT 1 25 Apr 03:45:48 03:50:04 33° 262° (W) 03:54:21 437.325
NO-84 25 Apr 03:53:52 03:56:40 55° 46° (NE) 03:59:28 435.350 FM
CUBESAT XI-V 25 Apr 04:02:54 04:06:43 26° 70° (ENE) 04:10:34 437.345
PCSat 25 Apr 04:10:30 04:14:14 19° 308° (NW) 04:18:00 145.827
STARS 25 Apr 04:20:36 04:23:39 19° 68° (ENE) 04:26:41 437.465
YUBILEINY 25 Apr 04:41:16 04:49:53 73° 93° (E) 04:58:32 435.215
MOZHAYETS 4 25 Apr 04:56:23 04:58:08 12° 268° (W) 04:59:52
AO-7 25 Apr 04:59:46 05:08:01 70° 291° (WNW) 05:16:16 .
ITAMSAT 1 25 Apr 05:04:17 05:08:47 31° 291° (WNW) 05:13:16 435.822/435.867
KKS-1 25 Apr 05:18:49 05:22:56 37° 261° (W) 05:27:06 437.445
DOVE 4 25 Apr 05:33:37 05:35:14 12° 90° (E) 05:36:50 437.250
CUBESAT XI-V 25 Apr 05:40:10 05:43:58 25° 264° (W) 05:47:49 437.345
STARS 25 Apr 05:55:43 05:59:42 33° 262° (W) 06:03:43 437.465
LilacSat-2 25 Apr 05:57:21 05:59:07 13° 93° (E) 06:00:52 437.200
SO-50 25 Apr 05:59:09 06:02:52 24° 111° (ESE) 06:06:34 436.795
XW-2C 25 Apr 06:00:11 06:02:02 13° 94° (E) 06:03:53 145.795 - 145.815
CUTE-I 25 Apr 06:00:21 06:03:24 15° 93° (E) 06:06:25 437.470
M-CUBED/EXP-1 PRIME 25 Apr 06:01:18 06:03:14 13° 60° (ENE) 06:05:12 437.505
KAITUO 1B 25 Apr 06:03:11 06:04:00 11° 93° (E) 06:04:49 145.475/437.950
XW-2F 25 Apr 06:25:46 06:29:02 27° 97° (E) 06:32:19 145.980 - 146.000
YUBILEINY 25 Apr 06:41:23 06:47:25 20° 291° (WNW) 06:53:30 435.215
NUDT-PHONESAT 25 Apr 06:42:24 06:45:52 36° 98° (E) 06:49:18 437.300
AO-7 25 Apr 06:55:56 06:59:17 13° 309° (NW) 07:02:40 .
RS-15 25 Apr 06:56:17 07:07:31 51° 108° (ESE) 07:19:08 29.354- 29.394
DOVE 4 25 Apr 07:08:50 07:13:17 49° 286° (WNW) 07:17:28 437.250
STRAND 1 25 Apr 07:09:46 07:14:42 52° 73° (ENE) 07:19:39 437.568
XW-2D 25 Apr 07:13:53 07:17:37 56° 285° (WNW) 07:21:22 145.860 - 145.880
XW-2A 25 Apr 07:20:33 07:22:07 13° 94° (E) 07:23:41 145.665 - 145.685
XW-2B 25 Apr 07:20:50 07:24:30 47° 285° (WNW) 07:28:10 145.730 - 145.750
LilacSat-2 25 Apr 07:29:59 07:33:27 34° 287° (WNW) 07:36:57 437.200
M-CUBED/EXP-1 PRIME 25 Apr 07:32:32 07:37:02 64° 255° (WSW) 07:41:41 437.505
XW-2C 25 Apr 07:32:52 07:36:18 32° 286° (WNW) 07:39:42 145.795 - 145.815
KAITUO 1B 25 Apr 07:34:37 07:38:08 39° 286° (WNW) 07:41:40 145.475/437.950
CUTE 1.7 + AOD 2 25 Apr 07:37:46 07:41:22 26° 96° (E) 07:44:58 437.475
CUTE-I 25 Apr 07:38:32 07:43:42 54° 287° (WNW) 07:48:51 437.470
SO-50 25 Apr 07:39:05 07:43:10 30° 305° (NW) 07:47:14 436.795
HO-68 25 Apr 07:50:54 07:57:44 44° 100° (E) 08:04:30 435.675
Tancredo 1 25 Apr 07:57:57 08:00:45 32° 132° (SE) 08:03:34 437.200
XW-2F 25 Apr 08:00:35 08:02:55 16° 290° (WNW) 08:05:16 145.980 - 146.000
SEEDS 25 Apr 08:00:52 08:04:38 30° 97° (E) 08:08:24 437.485
ISS 25 Apr 08:06:48 08:09:42 31° 131° (SE) 08:12:38 437.550
UWE-3 25 Apr 08:16:42 08:19:39 18° 95° (E) 08:22:37 435.000/436.395/437.385
NUDT-PHONESAT 25 Apr 08:18:03 08:19:24 12° 292° (WNW) 08:20:45 437.300
CUBEBUG 2 25 Apr 08:25:33 08:29:29 40° 99° (E) 08:33:28 437.445
PRISM 25 Apr 08:38:42 08:39:48 11° 65° (ENE) 08:40:54 437.425
STRAND 1 25 Apr 08:51:19 08:54:08 15° 267° (W) 08:56:57 437.568
XW-2A 25 Apr 08:52:06 08:54:52 24° 287° (WNW) 08:57:37 145.665 - 145.685
FO-29 25 Apr 09:04:09 09:07:57 17° 66° (ENE) 09:11:30 435.910
RS-15 25 Apr 09:08:36 09:20:03 47° 309° (NW) 09:31:52 29.354- 29.394
AAUSAT CUBESAT 2 25 Apr 09:13:22 09:17:33 73° 283° (WNW) 09:21:42 437.432
CUTE 1.7 + AOD 2 25 Apr 09:13:45 09:17:02 22° 290° (WNW) 09:20:18 437.475
ZACube-1 25 Apr 09:14:54 09:19:01 52° 100° (E) 09:23:13 437.345
AO-73 25 Apr 09:22:42 09:26:52 58° 100° (E) 09:31:07 145.935
Tancredo 1 25 Apr 09:34:23 09:36:43 19° 327° (NNW) 09:39:02 437.200
SEEDS 25 Apr 09:37:08 09:40:04 18° 291° (WNW) 09:42:59 437.485
HO-68 25 Apr 09:39:02 09:45:09 31° 295° (WNW) 09:51:15 435.675
Oscar 11 25 Apr 09:40:16 09:44:37 79° 102° (ESE) 09:48:58 .
OBJECT BX 25 Apr 09:43:30 09:45:23 13° 94° (E) 09:47:14 145.990 - 145.960
ISS 25 Apr 09:43:38 09:46:12 21° 326° (NW) 09:48:47 437.550
UWE-3 25 Apr 09:52:28 09:56:05 29° 288° (WNW) 09:59:45 435.000/436.395/437.385
TIGRISAT 25 Apr 09:54:00 09:58:16 48° 74° (ENE) 10:02:26 435.000
CUBEBUG 2 25 Apr 10:03:44 10:05:44 13° 292° (WNW) 10:07:45 437.445
PRISM 25 Apr 10:10:32 10:14:34 52° 260° (W) 10:18:39 437.425
DELFI C3 25 Apr 10:11:44 10:15:37 47° 99° (E) 10:19:28 145.870
UNISAT 6 25 Apr 10:14:33 10:19:00 87° 261° (W) 10:23:22 437.425
O/OREOS (USA 219) 25 Apr 10:30:57 10:35:28 66° 107° (ESE) 10:40:02 437.305
FO-29 25 Apr 10:46:01 10:52:37 65° 258° (WSW) 10:58:27 435.910
POLYITAN 1 25 Apr 10:47:45 10:49:42 13° 67° (ENE) 10:51:38 437.675
LO-87 25 Apr 10:52:58 10:54:17 12° 93° (E) 10:55:36 145.935 - 145.965
QB50P2 25 Apr 10:53:26 10:56:08 17° 68° (ENE) 10:58:50 145.880/145.840
ZACube-1 25 Apr 10:53:38 10:54:50 11° 293° (WNW) 10:56:03 437.345
OBJECT BX 25 Apr 11:15:54 11:19:05 28° 287° (WNW) 11:22:15 145.990 - 145.960
NANOSAT C BR1 25 Apr 11:16:02 11:19:30 25° 71° (ENE) 11:22:58 145.865
PCSat 25 Apr 11:17:18 11:21:31 22° 53° (NE) 11:25:42 145.827
